To NAV CANADA Home Page Login to a new session Search on AWWS site Feedback and Comments Disclaimer Vers la page française équivalente Tips FAQ What's new on the site To the Forecasts and Observations / NOTAM section To "File a Flight Plan" website Publications and other links Update of the User's profile FIC Telephone Numbers My Weather Data Folder Route Weather Data Regional Weather Data Local Weather Data To the Forecasts and Observations / NOTAM section
Request Generated 07/28/2015 at 03:24:55 UTC . Weather information available at that time is displayed.

METAR/TAF

PAULATUK/PAULATUK (NORA ALIQATCHIALUK RUBEN)/NT    

LWIS CYPC 280300Z AUTO 32008KT 13/11 A2967=
LWIS CYPC 280200Z AUTO 32009KT 13/11 A2968=
LWIS CYPC 280100Z AUTO 32009KT 13/10 A2968=

*** REMARK        : Forecast period has ended; this was the last TAF issued
*** REMARQUE : La période de prévision est échue; ceci était le dernier TAF qui a été émis
TAF AMD CYPC 271934Z 2719/2723 VRB03KT P6SM FEW008 BKN025 TEMPO
2719/2723 5SM BR SCT008 BKN020
RMK NXT FCST WILL BE ISSUED AT 281445Z=
Your time UTC time
Weather data provided by Environment Canada and NAV CANADA